Powrót do katalogu

BREEZE-M DEB

LostHEO
NORAD 34261·DEBRIS·🇷🇺 Russia

Wystrzelony Feb 28, 2006 z Baikonur Cosmodrome

Loading…

Następne Przeloty (najbliższe 24 godziny)

TLE

NieaktualneSource: Space-Track

Epoka: Apr 27, 2024, 07:39 UTC

1 34261U 06006CC  24118.31932988  .00036187  00000-0  23924-1 0  9993
2 34261  52.1159 110.6486 4013684 193.4630 151.6081  7.12023944244777

Śledź BREEZE-M DEB w czasie rzeczywistym z AllMySat

Download on the App Store